Location: Columbia
(38.9520°N, 92.3340°W)
Time: 18:42:39
(UTC-05:00)

Cosmos 1633 - Visible Passes

Search period start: 03 July 2015 00:00
Search period end: 13 July 2015 00:00
Orbit: 482 x 504 km, 82.5° (Epoch: 03 July)

Date Brightness Start Highest point End Pass type
(mag) Time Alt. Az. Time Alt. Az. Time Alt. Az.
03 Jul 3.8 03:14:32 32° ESE 03:15:18 36° E 03:18:46 10° NNE visible
03 Jul 4.8 04:49:06 10° W 04:50:47 13° WNW 04:52:24 10° NW visible
04 Jul 4.4 02:52:55 23° ESE 02:53:20 24° E 02:56:24 10° NE visible
04 Jul 4.3 04:27:28 16° W 04:28:36 18° WNW 04:31:14 10° NNW visible
05 Jul 5.0 02:31:15 16° E 02:31:23 16° E 02:33:48 10° NE visible
05 Jul 3.8 04:05:49 25° W 04:06:27 27° WNW 04:09:40 10° NNW visible
06 Jul 5.5 02:09:35 11° E 02:09:35 11° E 02:10:27 10° ENE visible
06 Jul 3.2 03:44:08 40° W 03:44:21 40° W 03:47:54 10° N visible
07 Jul 2.7 03:22:27 63° WNW 03:22:27 63° WNW 03:26:00 10° N visible
08 Jul 2.9 03:00:44 65° NNE 03:00:44 65° NNE 03:03:58 10° N visible
09 Jul 3.7 02:38:59 41° NE 02:38:59 41° NE 02:41:50 10° NNE visible
10 Jul 4.5 02:17:14 27° ENE 02:17:14 27° ENE 02:19:34 10° NNE visible
10 Jul 4.8 03:51:47 14° WNW 03:51:47 14° WNW 03:53:34 10° NW visible
11 Jul 5.0 01:55:28 18° ENE 01:55:28 18° ENE 01:57:07 10° NE visible
11 Jul 4.5 03:30:01 19° WNW 03:30:01 19° WNW 03:32:13 10° NNW visible
12 Jul 5.5 01:33:41 12° ENE 01:33:41 12° ENE 01:34:21 10° NE visible
12 Jul 4.2 03:08:13 26° NW 03:08:13 26° NW 03:10:33 10° NNW visible
